User: anonymous
Location: Caltech
(34.1382°N, 118.1253°W)
Time: 01:58:40
(UTC-07:00)
Language:

Cosmos 1626 - Orbit

View from above orbital plane
View from above orbital plane
View from above satellite
View from above satellite

Ground track
Ground track

The orbit data is extracted from the following two-line orbital elements,

1 15494U 85009A   14204.47205885  .00000598  00000-0  30049-4 0  6130
2 15494 082.4801 225.6724 0004170 136.2356 339.2851 15.15348666607812
Epoch (UTC): 23 July 2014 11:19:45
Eccentricity: 0.0004170
inclination: 82.4801°
perigee height: 517 km
apogee height: 523 km
right ascension of ascending node: 225.6724°
argument of perigee: 136.2356°
revolutions per day: 15.15348666
mean anomaly at epoch: 339.2851°
orbit number at epoch: 60781

The dashed part of the orbit path shows where the satellite is in the earth's shadow,  

DLR